Location: Unspecified
(0.0000°N, 0.0000°E)
Time: 23:08:07
(UTC+00:00)

Tiangong 2 - Pass Details

Date: 24 April 2018
Orbit: 381 x 388 km, 42.8° (Epoch: 26 April)

Event Time Altitude Azimuth Distance (km) Brightness Sun altitude
Exits shadow 05:16:54 - 200° (SSW) 2,128 4.5 -10.1°
Reaches altitude 10° 05:19:03 10° 181° (S) 1,399 3.8 -9.5°
Maximum altitude 05:21:20 18° 135° (SE) 1,017 3.6 -9.0°
Drops below altitude 10° 05:23:35 10° 89° (E) 1,398 5.5 -8.4°
Sets 05:26:04 0° 69° (ENE) 2,250 7.2 -7.8°
